Location: Bourg-d�Oueil
(42.8588°N, 0.4991°E)
Time: 20:34:10
(UTC+00:00)

OBJECT-B - Pass Details

Date: 16 June 2021
Orbit: 414 x 423 km, 97.0° (Epoch: 05 June)

Event Time Altitude Azimuth Distance (km) Brightness Sun altitude
Rises 20:36:24 0° 205° (SSW) 2,351 4.3 -9.0°
Reaches altitude 10° 20:39:01 10° 230° (SW) 1,492 3.6 -9.4°
Maximum altitude 20:40:57 15° 267° (W) 1,224 3.7 -9.6°
Drops below altitude 10° 20:42:54 10° 305° (NW) 1,499 5.1 -9.9°
Sets 20:45:33 0° 329° (NNW) 2,367 6.4 -10.2°
